WX2NJ Weather Reports


time (UTC)temp
C
wind
direction
speed
KPH
gust
KPH
rain 1hr
cm
rain 24hr
cm
rain mn
cm
humidity
%
barometer
mb
20260504033319 8 145 1.6 3.2 0.00 0.00 0.00 51 1017.3
20260504032815 8 105 1.6 4.8 0.00 0.00 0.00 51 1017.4
20260504032313 8 127 3.2 4.8 0.00 0.00 0.00 50 1017.5
20260504031810 8 130 3.2 4.8 0.00 0.00 0.00 51 1017.3
20260504031307 8 121 3.2 3.2 0.00 0.00 0.00 52 1017.2
20260504030803 8 157 0.0 4.8 0.00 0.00 0.00 51 1017.3
20260504030300 8 112 3.2 3.2 0.00 0.00 0.00 52 1017.4
20260504025756 8 127 3.2 4.8 0.00 0.00 0.00 50 1017.4
20260504025253 8 117 0.0 3.2 0.00 0.00 0.00 52 1017.1
20260504024750 8 151 0.0 3.2 0.00 0.00 0.00 53 1017.2
20260504024247 8 151 1.6 3.2 0.00 0.00 0.00 52 1017.2
20260504023744 8 105 0.0 3.2 0.00 0.00 0.00 53 1017.1
20260504023240 8 157 0.0 1.6 0.00 0.00 0.00 52 1017.1
20260504022736 8 157 0.0 3.2 0.00 0.00 0.00 50 1017.2
20260504022232 8 157 0.0 3.2 0.00 0.00 0.00 51 1017.2
20260504021730 9 139 3.2 4.8 0.00 0.00 0.00 49 1017.3
20260504021227 9 140 1.6 4.8 0.00 0.00 0.00 50 1017.2
20260504020723 9 118 4.8 4.8 0.00 0.00 0.00 50 1017.4
20260504020220 9 218 3.2 4.8 0.00 0.00 0.00 50 1017.4
20260504015716 9 243 0.0 4.8 0.00 0.00 0.00 49 1017.4
20260504015213 9 146 0.0 4.8 0.00 0.00 0.00 49 1017.2
20260504014708 8 180 1.6 1.6 0.00 0.00 0.00 50 1017.1
20260504014205 9 171 3.2 4.8 0.00 0.00 0.00 50 1017.1
20260504013703 8 145 0.0 3.2 0.00 0.00 0.00 51 1017.1
20260504013200 8 126 0.0 3.2 0.00 0.00 0.00 51 1017.1
20260504012657 9 144 0.0 3.2 0.00 0.00 0.00 51 1017.0
20260504012155 9 135 0.0 4.8 0.00 0.00 0.00 50 1016.8
20260504011652 9 168 1.6 3.2 0.00 0.00 0.00 49 1016.9
20260504011148 9 131 0.0 3.2 0.00 0.00 0.00 50 1016.8
20260504010644 9 160 0.0 1.6 0.00 0.00 0.00 49 1016.6
20260504010139 9 157 1.6 3.2 0.00 0.00 0.00 49 1016.6
20260504005637 9 157 1.6 3.2 0.00 0.00 0.00 50 1016.6
20260504005133 9 160 1.6 3.2 0.00 0.00 0.00 50 1016.5
20260504004632 9 128 0.0 3.2 0.00 0.00 0.00 50 1016.4
20260504004129 9 120 3.2 3.2 0.00 0.00 0.00 50 1016.0
20260504003625 9 166 0.0 3.2 0.00 0.00 0.00 49 1016.3
20260504003121 10 160 1.6 3.2 0.00 0.00 0.00 49 1016.3
20260504002618 10 135 3.2 3.2 0.00 0.00 0.00 49 1016.3
20260504002116 10 146 3.2 3.2 0.00 0.00 0.00 48 1016.2
20260504001614 10 126 1.6 1.6 0.00 0.00 0.00 47 1016.1
20260504001109 10 145 0.0 3.2 0.00 0.00 0.00 47 1016.1
20260504000607 10 131 3.2 3.2 0.00 0.00 0.00 46 1015.8
20260504000104 11 145 1.6 3.2 0.00 0.00 0.00 45 1016.0
20260503235603 11 126 0.0 3.2 0.00 0.00 0.00 45 1015.8
20260503235059 11 157 0.0 3.2 0.00 0.00 0.00 42 1015.8
20260503234557 12 151 0.0 0.0 0.00 0.00 0.00 40 1015.7
20260503234055 12 133 4.8 4.8 0.00 0.00 0.00 39 1015.7
20260503233551 12 157 3.2 4.8 0.00 0.00 0.00 37 1015.6
20260503233047 13 90 0.0 4.8 0.00 0.00 0.00 36 1015.7
20260503232544 13 164 3.2 3.2 0.00 0.00 0.00 33 1015.4
20260503232042 13 125 4.8 4.8 0.00 0.00 0.00 33 1015.5
20260503231539 13 140 0.0 4.8 0.00 0.00 0.00 33 1015.5
20260503231036 13 126 0.0 4.8 0.00 0.00 0.00 32 1015.4
20260503230532 14 145 1.6 3.2 0.00 0.00 0.00 31 1015.5
20260503230030 14 195 0.0 6.4 0.00 0.00 0.00 31 1015.5
20260503225527 14 160 0.0 3.2 0.00 0.00 0.00 31 1015.6
20260503225022 14 188 4.8 4.8 0.00 0.00 0.00 29 1015.4
20260503224520 15 187 0.0 6.4 0.00 0.00 0.00 30 1015.4
20260503224017 15 177 0.0 6.4 0.00 0.00 0.00 31 1015.3
20260503223515 15 141 3.2 8.0 0.00 0.00 0.00 28 1015.5
20260503223010 15 204 3.2 9.7 0.00 0.00 0.00 28 1015.3
20260503222509 15 172 0.0 8.0 0.00 0.00 0.00 29 1015.2
20260503222007 15 178 6.4 12.9 0.00 0.00 0.00 28 1015.3
20260503221505 15 256 8.0 17.7 0.00 0.00 0.00 27 1015.3
20260503221002 15 135 3.2 9.7 0.00 0.00 0.00 27 1015.1
20260503220458 15 277 1.6 4.8 0.00 0.00 0.00 29 1015.2
20260503215954 15 254 4.8 9.7 0.00 0.00 0.00 26 1015.0
20260503215451 15 174 4.8 8.0 0.00 0.00 0.00 27 1015.3
20260503214949 16 273 4.8 9.7 0.00 0.00 0.00 26 1015.1
20260503214447 16 308 3.2 6.4 0.00 0.00 0.00 27 1015.1
20260503213944 16 176 3.2 17.7 0.00 0.00 0.00 26 1015.2
20260503213442 16 255 1.6 6.4 0.00 0.00 0.00 25 1014.9
20260503212938 16 182 4.8 14.5 0.00 0.00 0.00 25 1015.2
20260503212435 16 180 4.8 6.4 0.00 0.00 0.00 25 1015.0
20260503211933 16 334 3.2 4.8 0.00 0.00 0.00 26 1015.0
20260503211430 16 194 0.0 12.9 0.00 0.00 0.00 27 1014.9
20260503210924 16 225 3.2 11.3 0.00 0.00 0.00 27 1015.0
20260503210422 16 187 1.6 6.4 0.00 0.00 0.00 27 1015.1
20260503205917 16 239 3.2 11.3 0.00 0.00 0.00 25 1015.1
20260503205414 16 247 8.0 17.7 0.00 0.00 0.00 26 1015.0
20260503204910 16 165 1.6 8.0 0.00 0.00 0.00 25 1014.8
20260503204408 16 211 4.8 6.4 0.00 0.00 0.00 27 1014.9
20260503203905 16 180 4.8 16.1 0.00 0.00 0.00 26 1014.8
20260503203402 16 126 1.6 17.7 0.00 0.00 0.00 27 1014.9
20260503202859 16 299 4.8 14.5 0.00 0.00 0.00 25 1014.9
20260503202357 16 229 4.8 27.4 0.00 0.00 0.00 27 1014.9
20260503201855 16 168 0.0 9.7 0.00 0.00 0.00 26 1014.9
20260503201352 16 278 1.6 14.5 0.00 0.00 0.00 27 1014.9
20260503200849 16 151 4.8 8.0 0.00 0.00 0.00 25 1015.0
20260503200345 16 222 4.8 12.9 0.00 0.00 0.00 27 1015.1
20260503195842 16 244 11.3 12.9 0.00 0.00 0.00 26 1015.3
20260503195339 15 150 6.4 20.9 0.00 0.00 0.00 28 1015.1
20260503194836 16 11 6.4 14.5 0.00 0.00 0.00 27 1015.2
20260503194332 16 6 1.6 6.4 0.00 0.00 0.00 30 1015.2
20260503193828 16 198 1.6 17.7 0.00 0.00 0.00 29 1015.4
20260503193324 16 336 3.2 19.3 0.00 0.00 0.00 28 1015.4
20260503192820 16 138 0.0 9.7 0.00 0.00 0.00 28 1015.4
20260503192316 16 255 1.6 12.9 0.00 0.00 0.00 30 1015.5
20260503191812 16 281 0.0 14.5 0.00 0.00 0.00 29 1015.4
20260503191310 15 135 3.2 4.8 0.00 0.00 0.00 31 1015.5
20260503190806 16 6 1.6 4.8 0.00 0.00 0.00 30 1015.6
20260503190303 15 173 1.6 9.7 0.00 0.00 0.00 29 1015.7
20260503185801 16 245 3.2 9.7 0.00 0.00 0.00 30 1015.6
20260503185256 15 327 3.2 11.3 0.00 0.00 0.00 32 1015.7
20260503184755 15 110 3.2 20.9 0.00 0.00 0.00 31 1015.7
20260503184252 15 233 3.2 8.0 0.00 0.00 0.00 33 1015.8
20260503183748 16 301 4.8 19.3 0.00 0.00 0.00 32 1015.7
20260503183246 16 280 0.0 11.3 0.00 0.00 0.00 30 1015.7
20260503182743 15 327 6.4 12.9 0.00 0.00 0.00 32 1015.9
20260503182242 14 204 3.2 16.1 0.00 0.00 0.00 32 1016.0
20260503181739 13 111 1.6 9.7 0.00 0.00 0.00 33 1015.8
20260503181236 15 152 3.2 22.5 0.00 0.00 0.00 29 1015.7
20260503180732 14 185 4.8 17.7 0.00 0.00 0.00 32 1016.1
20260503180231 14 248 3.2 12.9 0.00 0.00 0.00 32 1016.0
20260503175727 13 164 4.8 12.9 0.00 0.00 0.00 33 1016.0
20260503175225 13 158 4.8 9.7 0.00 0.00 0.00 37 1016.0
20260503174720 13 172 4.8 12.9 0.00 0.00 0.00 36 1016.0
20260503174219 13 70 0.0 12.9 0.00 0.00 0.00 34 1015.9
20260503173714 12 339 0.0 11.3 0.00 0.00 0.00 36 1016.1
20260503173210 13 215 1.6 9.7 0.00 0.00 0.00 33 1016.0
20260503172707 14 144 3.2 20.9 0.00 0.00 0.00 34 1016.2
20260503172204 15 219 6.4 9.7 0.00 0.00 0.00 33 1015.6
20260503171700 14 248 3.2 9.7 0.00 0.00 0.00 35 1015.8
20260503171158 13 32 8.0 9.7 0.00 0.00 0.00 34 1016.0
20260503170654 14 206 3.2 8.0 0.00 0.00 0.00 34 1016.0
20260503170151 14 174 8.0 19.3 0.00 0.00 0.00 34 1016.0
20260503160113 13 292 3.2 16.1 0.00 0.00 0.00 37 1016.1
20260503150543 13 232 6.4 8.0 0.00 0.00 0.00 39 1016.4
20260503130933 10 85 6.4 6.4 0.00 0.00 0.00 53 1016.2
20260503130431 10 102 0.0 9.7 0.00 0.00 0.00 54 1016.3
20260503110823 7 144 0.0 4.8 0.00 0.00 0.00 62 1015.3
20260503110320 7 180 0.0 6.4 0.00 0.00 0.00 62 1015.3
20260503100246 6 157 0.0 3.2 0.00 0.00 0.00 70 1014.3
20260503090206 5 151 1.6 3.2 0.00 0.00 0.00 73 1013.6
20260503081636 5 127 3.2 3.2 0.00 0.00 0.00 72 1013.4
20260503081133 5 148 1.6 1.6 0.00 0.00 0.00 71 1013.2
20260503080629 6 157 0.0 1.6 0.00 0.00 0.00 71 1013.4
20260503080126 6 168 0.0 1.6 0.00 0.00 0.00 70 1013.3
20260503072603 7 145 1.6 1.6 0.00 0.00 0.00 65 1013.3
20260503072100 7 157 0.0 3.2 0.00 0.00 0.00 65 1013.5
20260503071556 7 117 0.0 3.2 0.00 0.00 0.00 64 1013.4
20260503071054 8 145 0.0 3.2 0.00 0.00 0.00 63 1013.4
20260503070550 8 195 0.0 3.2 0.00 0.00 0.00 63 1013.4
20260503055003 8 114 1.6 1.6 0.00 0.00 0.00 64 1013.7
20260503054459 8 114 0.0 1.6 0.00 0.00 0.00 65 1013.7
20260503053957 8 194 0.0 0.0 0.00 0.00 0.00 64 1013.7
20260503053455 8 129 0.0 4.8 0.00 0.00 0.00 64 1013.7
20260503052951 8 154 1.6 3.2 0.00 0.00 0.00 66 1013.9
20260503052449 8 212 0.0 3.2 0.00 0.00 0.00 65 1013.6
20260503051945 8 120 0.0 3.2 0.00 0.00 0.00 66 1013.7
20260503051441 8 188 0.0 1.6 0.00 0.00 0.00 67 1013.8
20260503050938 8 106 0.0 3.2 0.00 0.00 0.00 67 1013.8
20260503050433 8 105 0.0 3.2 0.00 0.00 0.00 67 1013.9
20260503045932 8 165 0.0 1.6 0.00 0.00 0.00 66 1013.7
20260503045429 8 114 0.0 3.2 0.00 0.00 0.00 67 1013.8
20260503044926 8 180 0.0 1.6 0.00 0.00 0.00 67 1013.8
20260503044422 8 126 1.6 1.6 0.00 0.00 0.00 67 1014.0
20260503043920 8 165 0.0 4.8 0.00 0.00 0.00 68 1013.9
20260503043416 8 123 0.0 3.2 0.00 0.00 0.00 68 1014.1
20260503042913 8 172 0.0 3.2 0.00 0.00 0.00 69 1014.3
20260503042410 8 101 3.2 3.2 0.00 0.00 0.00 71 1014.1
20260503041906 8 135 0.0 3.2 0.00 0.00 0.00 71 1014.5
20260503041403 8 158 0.0 3.2 0.00 0.00 0.00 71 1014.3
20260503040900 8 132 0.0 3.2 0.00 0.00 0.00 71 1014.4
20260503040358 8 162 0.0 3.2 0.00 0.00 0.00 73 1014.3
20260503035854 8 175 0.0 1.6 0.00 0.00 0.00 73 1014.4
20260503035351 8 164 0.0 3.2 0.00 0.00 0.00 74 1014.2
20260503034849 8 144 3.2 4.8 0.00 0.00 0.00 76 1014.1
20260503034346 8 120 0.0 3.2 0.00 0.00 0.00 78 1014.2
20260503033843 8 139 3.2 3.2 0.00 0.00 0.00 81 1014.1